STARLINK-30047 (55709 NORAD) Tracking and Keplerian Element Data

This shows tracking and keplerian element data for the satellite.

Feedback or suggestion? Click here.




ElementValue
Catalog55709
NameSTARLINK-30047
Epoch Orbit166
Epoch Day63.00001157
Epoch Year2023
RAAN259.1083
Inclination43.0107
Eccentricity0.0001163
Argument of Perigee283.1407
Mean Anonmoly290.8286
Mean Motion15.6626056
Decay Rate-0.00783099
L11 55709U 23026Q 23063.00001157 -.00783099 00000+0 -80998-2 0 9990
L22 55709 43.0107 259.1083 0001163 283.1407 290.8286 15.66260560 1662



Live tracking and technical data element details for STARLINK-30047 (NORAD 55709). STARLINK-30047 can be tracked NOW for your location showing map with azimuth and elevation plus other details from your city location.







IsCatalogInMostPopularTable: catalog: 55709, numindb: 1
Update: records affected: 1



GetName: 55709 STARLINK-30047

Hit Count: updated at: Mon, 20 Mar 2023 12:12:59 GMT